Location: Anglesey
(53.1800°N, 4.2200°W)
Time: 11:02:35
(UTC+00:00)

Envisat - Pass Details

Date: 08 October 2017
Orbit: 764 x 766 km, 98.2° (Epoch: 18 December)

Event Time Altitude Azimuth Distance (km) Brightness Sun altitude
Exits shadow 22:21:02 12° 235° (SW) 2,140 5.4 -32.5°
Maximum altitude 22:23:50 18° 272° (W) 1,796 5.4 -32.8°
Drops below altitude 10° 22:27:21 10° 316° (NW) 2,316 6.3 -33.2°
Sets 22:30:24 0° 335° (NNW) 3,249 7.1 -33.6°
